Pittsfield, IL

9:57 PM CDT on April 27, 2017 (GMT -0500)
Pittsfield Penstone Municipal

Weather History for KPPQ - January, 2013

Change the Weather History Date:

Tuesday, January 1, 2013

  Actual Average (KUIN) Record (KUIN)
Temperature  
Mean Temperature 14 °F -  
Max Temperature 23 °F 32 °F 60 °F (1905)
Min Temperature 4 °F 16 °F -13 °F (1974)
Degree Days  
Heating Degree Days 50    
Moisture  
Dew Point 12 °F    
Average Humidity 79    
Maximum Humidity 90    
Minimum Humidity 63    
Precipitation  
Precipitation 0.00 in - - ()
Sea Level Pressure  
Sea Level Pressure 30.23 in    
Wind  
Wind Speed 6 mph (NW)    
Max Wind Speed 9 mph    
Max Gust Speed -    
Visibility 10 miles    
Events      
Averages and records for this station are not official NWS values.
T = Trace of Precipitation, MM = Missing Value Source: NWS Daily Summary

Daily Weather History Graph

Daily Weather History Graph

Search for Another Location

Airport or City:

Trip Planner

Search our weather history database for the weather conditions in past years. The results will help you decide how hot, cold, wet, or windy it might be!

Date:

Astronomy

Jan. 01, 2013 Rise Set
Actual Time 7:23 AM CST 4:49 PM CST
Civil Twilight 6:53 AM CST 5:20 PM CST
Nautical Twilight 6:20 AM CST 5:53 PM CST
Astronomical Twilight 5:47 AM CST 6:26 PM CST
Moon 9:20 PM CST (1/1) 9:37 AM CST (1/1)
Length of Visible Light 10h 26m
Length of Day
9h 25m
Waning Gibbous, 83% of the Moon is Illuminated
Jan 1
Waning Gibbous
Jan 4
Last Quarter
Jan 11
New
Jan 18
First Quarter
Jan 26
Full

Hourly Weather History & Observations

Time (CST) Temp. Windchill Dew Point Humidity Pressure Visibility Wind Dir Wind Speed Gust Speed Precip Events Conditions
12:15 AM 22.1 °F 14.7 °F 17.8 °F 83% 30.16 in 10.0 mi North 5.8 mph - N/A   Overcast
12:35 AM 21.7 °F 12.3 °F 17.2 °F 83% 30.15 in 10.0 mi North 8.1 mph - N/A   Overcast
12:55 AM 21.6 °F 13.0 °F 16.9 °F 82% 30.16 in 10.0 mi North 6.9 mph - N/A   Overcast
1:15 AM 21.6 °F 11.3 °F 16.5 °F 81% 30.16 in 10.0 mi North 9.2 mph - N/A   Overcast
1:35 AM 21.6 °F 14.0 °F 16.9 °F 82% 30.17 in 10.0 mi North 5.8 mph - N/A   Overcast
1:55 AM 21.6 °F 14.0 °F 16.3 °F 80% 30.16 in 10.0 mi North 5.8 mph - N/A   Overcast
2:15 AM 21.2 °F 11.7 °F 16.5 °F 82% 30.18 in 10.0 mi North 8.1 mph - N/A   Overcast
2:35 AM 21.2 °F 11.7 °F 16.0 °F 80% 30.18 in 10.0 mi NNW 8.1 mph - N/A   Overcast
2:55 AM 21.2 °F 12.6 °F 15.8 °F 80% 30.18 in 10.0 mi NNW 6.9 mph - N/A   Overcast
3:15 AM 21.0 °F 13.4 °F 15.8 °F 80% 30.19 in 10.0 mi NNW 5.8 mph - N/A   Overcast
3:35 AM 20.7 °F 13.0 °F 15.6 °F 81% 30.19 in 10.0 mi NNW 5.8 mph - N/A   Overcast
3:55 AM 20.8 °F 14.4 °F 15.8 °F 81% 30.19 in 10.0 mi NNW 4.6 mph - N/A   Overcast
4:15 AM 20.8 °F 11.2 °F 16.0 °F 81% 30.19 in 10.0 mi NNW 8.1 mph - N/A   Overcast
4:35 AM 20.3 °F 10.6 °F 14.9 °F 80% 30.20 in 10.0 mi NNW 8.1 mph - N/A   Overcast
4:55 AM 19.4 °F 10.4 °F 14.0 °F 80% 30.19 in 10.0 mi NNW 6.9 mph - N/A   Scattered Clouds
5:15 AM 18.1 °F 8.9 °F 13.6 °F 83% 30.19 in 10.0 mi NNW 6.9 mph - N/A   Clear
5:35 AM 17.8 °F 8.5 °F 13.1 °F 82% 30.19 in 10.0 mi North 6.9 mph - N/A   Clear
5:55 AM 17.6 °F 8.2 °F 14.0 °F 86% 30.19 in 10.0 mi North 6.9 mph - N/A   Clear
6:15 AM 16.5 °F 9.4 °F 12.7 °F 85% 30.20 in 10.0 mi NNW 4.6 mph - N/A   Clear
6:35 AM 16.7 °F 7.2 °F 12.7 °F 84% 30.18 in 10.0 mi North 6.9 mph - N/A   Clear
6:55 AM 16.7 °F 5.3 °F 12.7 °F 84% 30.14 in 10.0 mi North 9.2 mph - N/A   Clear
7:15 AM 16.7 °F 7.2 °F 12.2 °F 82% 30.18 in 10.0 mi North 6.9 mph - N/A   Clear
7:35 AM 16.7 °F 8.3 °F 11.7 °F 81% 30.24 in 10.0 mi NNW 5.8 mph - N/A   Clear
7:55 AM 15.8 °F 10.2 °F 10.4 °F 79% 30.26 in 10.0 mi WNW 3.5 mph - N/A   Scattered Clouds
8:15 AM 15.1 °F 6.4 °F 10.6 °F 82% 30.24 in 10.0 mi NNW 5.8 mph - N/A   Scattered Clouds
8:35 AM 16.0 °F 7.4 °F 11.1 °F 81% 30.25 in 10.0 mi NNW 5.8 mph - N/A   Clear
8:55 AM 15.8 °F 10.2 °F 10.4 °F 79% 30.26 in 10.0 mi NW 3.5 mph - N/A   Clear
9:15 AM 15.4 °F 5.6 °F 10.4 °F 80% 30.26 in 10.0 mi NNW 6.9 mph - N/A   Clear
9:35 AM 17.1 °F 10.0 °F 11.7 °F 79% 30.28 in 10.0 mi NW 4.6 mph - N/A   Clear
9:55 AM 18.1 °F 11.3 °F 12.0 °F 77% 30.28 in 10.0 mi NW 4.6 mph - N/A   Clear
10:15 AM 18.9 °F 10.8 °F 12.2 °F 75% 30.28 in 10.0 mi North 5.8 mph - N/A   Clear
10:35 AM 19.4 °F 12.8 °F 12.7 °F 75% 30.27 in 10.0 mi North 4.6 mph - N/A   Clear
10:55 AM 20.1 °F 12.3 °F 13.5 °F 75% 30.27 in 10.0 mi NNW 5.8 mph - N/A   Clear
11:15 AM 20.5 °F 12.8 °F 12.9 °F 73% 30.26 in 10.0 mi North 5.8 mph - N/A   Clear
11:35 AM 20.7 °F 11.9 °F 13.1 °F 73% 30.27 in 10.0 mi NW 6.9 mph - N/A   Clear
11:55 AM 21.0 °F 12.4 °F 13.1 °F 71% 30.25 in 10.0 mi NW 6.9 mph - N/A   Clear
12:15 PM 21.6 °F 12.1 °F 13.3 °F 70% 30.24 in 10.0 mi NW 8.1 mph - N/A   Clear
12:35 PM 22.1 °F 12.0 °F 12.0 °F 65% 30.23 in 10.0 mi NNW 9.2 mph - N/A   Clear
12:55 PM 22.1 °F 12.8 °F 11.5 °F 64% 30.23 in 10.0 mi NNW 8.1 mph - N/A   Clear
1:15 PM 22.3 °F 13.0 °F 12.0 °F 65% 30.23 in 10.0 mi NW 8.1 mph - N/A   Clear
1:35 PM 22.1 °F 12.0 °F 12.0 °F 65% 30.22 in 10.0 mi NNW 9.2 mph - N/A   Clear
1:55 PM 23.0 °F 14.7 °F 12.2 °F 63% 30.22 in 10.0 mi NW 6.9 mph - N/A   Clear
2:15 PM 21.6 °F 13.0 °F 11.3 °F 65% 30.22 in 10.0 mi NW 6.9 mph - N/A   Clear
2:35 PM 21.7 °F 12.3 °F 11.7 °F 65% 30.22 in 10.0 mi NNW 8.1 mph - N/A   Mostly Cloudy
2:55 PM 23.0 °F 14.7 °F 12.2 °F 63% 30.23 in 10.0 mi NNW 6.9 mph - N/A   Overcast
3:15 PM 22.1 °F 12.0 °F 12.4 °F 66% 30.23 in 10.0 mi NW 9.2 mph - N/A   Overcast
3:35 PM 21.6 °F 12.1 °F 11.8 °F 66% 30.24 in 10.0 mi NW 8.1 mph - N/A   Overcast
3:55 PM 20.5 °F 10.8 °F 10.4 °F 65% 30.24 in 10.0 mi NW 8.1 mph - N/A   Scattered Clouds
4:15 PM 19.9 °F 13.4 °F 10.4 °F 67% 30.25 in 10.0 mi NW 4.6 mph - N/A   Scattered Clouds
4:35 PM 19.4 °F 12.8 °F 10.8 °F 69% 30.25 in 10.0 mi WNW 4.6 mph - N/A   Scattered Clouds
4:55 PM 18.9 °F 13.7 °F 10.2 °F 69% 30.25 in 10.0 mi WNW 3.5 mph - N/A   Clear
5:15 PM 16.7 °F 8.3 °F 9.3 °F 73% 30.25 in 10.0 mi NW 5.8 mph - N/A   Clear
5:35 PM 16.2 °F 10.6 °F 9.5 °F 75% 30.25 in 10.0 mi WNW 3.5 mph - N/A   Clear
5:55 PM 16.5 °F - 10.4 °F 77% 30.25 in 10.0 mi Calm Calm - N/A   Clear
6:15 PM 15.3 °F 9.6 °F 10.0 °F 80% 30.26 in 10.0 mi WNW 3.5 mph - N/A   Clear
6:35 PM 14.5 °F 8.8 °F 10.0 °F 82% 30.27 in 10.0 mi WNW 3.5 mph - N/A   Clear
6:55 PM 14.0 °F 8.2 °F 10.0 °F 84% 30.26 in 10.0 mi WSW 3.5 mph - N/A   Clear
7:15 PM 14.5 °F - 10.4 °F 84% 30.25 in 10.0 mi Calm Calm - N/A   Clear
7:35 PM 13.8 °F - 9.5 °F 83% 30.24 in 10.0 mi Calm Calm - N/A   Clear
7:55 PM 11.8 °F 3.9 °F 8.6 °F 87% 30.24 in 10.0 mi WNW 4.6 mph - N/A   Clear
8:15 PM 9.7 °F 3.2 °F 7.2 °F 90% 30.24 in 7.0 mi West 3.5 mph - N/A   Clear
8:35 PM 10.0 °F 1.8 °F 7.7 °F 90% 30.25 in 7.0 mi West 4.6 mph - N/A   Clear
8:55 PM 9.5 °F 1.2 °F 7.0 °F 90% 30.26 in 7.0 mi West 4.6 mph - N/A   Clear
9:15 PM 9.1 °F 2.6 °F 6.6 °F 89% 30.25 in 7.0 mi West 3.5 mph - N/A   Clear
9:35 PM 8.6 °F 0.1 °F 5.9 °F 89% 30.25 in 7.0 mi West 4.6 mph - N/A   Clear
9:55 PM 9.0 °F 2.4 °F 6.3 °F 89% 30.25 in 7.0 mi West 3.5 mph - N/A   Clear
10:15 PM 7.7 °F -2.4 °F 5.4 °F 90% 30.26 in 7.0 mi West 5.8 mph - N/A   Clear
10:35 PM 9.9 °F 1.6 °F 7.2 °F 89% 30.25 in 10.0 mi West 4.6 mph - N/A   Scattered Clouds
10:55 PM 8.2 °F 1.6 °F 4.5 °F 85% 30.26 in 10.0 mi West 3.5 mph - N/A   Clear
11:15 PM 7.2 °F 0.3 °F 4.3 °F 88% 30.25 in 7.0 mi WSW 3.5 mph - N/A   Clear
11:35 PM 6.6 °F - 3.4 °F 87% 30.24 in 10.0 mi Calm Calm - N/A   Clear
11:55 PM 4.8 °F - 2.3 °F 89% 30.23 in 10.0 mi Calm Calm - N/A   Clear